Tacoma Narrows, WA

11:58 PM PDT on June 27, 2017 (GMT -0700)
Tacoma Narrows

Weather History for KTIW - November, 2013

Change the Weather History Date:

Sunday, November 24, 2013

  Actual Average Record
Temperature  
Mean Temperature 39 °F -  
Max Temperature 45 °F 47 °F 55 °F (2004)
Min Temperature 33 °F 39 °F 17 °F (2010)
Degree Days  
Heating Degree Days 26    
Moisture  
Dew Point 35 °F    
Average Humidity 91    
Maximum Humidity 100    
Minimum Humidity 79    
Precipitation  
Precipitation 0.00 in - - ()
Sea Level Pressure  
Sea Level Pressure 30.20 in    
Wind  
Wind Speed 0 mph (North)    
Max Wind Speed 5 mph    
Max Gust Speed -    
Visibility 3 miles    
Events Fog    
Averages and records for this station are not official NWS values.
T = Trace of Precipitation, MM = Missing Value Source: NWS Daily Summary

Daily Weather History Graph

Daily Weather History Graph

Search for Another Location

Airport or City:

Trip Planner

Search our weather history database for the weather conditions in past years. The results will help you decide how hot, cold, wet, or windy it might be!

Date:

Astronomy

Nov. 24, 2013 Rise Set
Actual Time 7:27 AM PST 4:26 PM PST
Civil Twilight 6:53 AM PST 5:00 PM PST
Nautical Twilight 6:15 AM PST 5:38 PM PST
Astronomical Twilight 5:39 AM PST 6:14 PM PST
Moon 11:11 PM PST (11/24) 12:06 PM PST (11/24)
Length of Visible Light 10h 06m
Length of Day
8h 58m
Waning Gibbous, 59% of the Moon is Illuminated
Nov 24
Waning Gibbous
Nov 25
Last Quarter
Dec 2
New
Dec 9
First Quarter
Dec 17
Full

Hourly Weather History & Observations

Time (PST) Temp. Windchill Dew Point Humidity Pressure Visibility Wind Dir Wind Speed Gust Speed Precip Events Conditions
12:53 AM 35.1 °F - 32.0 °F 89% 30.20 in 7.0 mi Calm Calm - N/A   Clear
1:10 AM 35.6 °F - 33.8 °F 93% 30.19 in 2.0 mi Calm Calm - N/A   Clear
1:19 AM 37.4 °F - 33.8 °F 87% 30.19 in 8.0 mi Calm Calm - N/A   Clear
1:42 AM 39.2 °F - 35.6 °F 87% 30.19 in 2.0 mi Calm Calm - N/A   Scattered Clouds
1:46 AM 39.2 °F - 35.6 °F 87% 30.19 in 1.0 mi Calm Calm - N/A   Mist
1:53 AM 37.9 °F - 36.0 °F 93% 30.19 in 0.8 mi Calm Calm - N/A   Mist
2:14 AM 37.4 °F - 35.6 °F 93% 30.19 in 0.2 mi Calm Calm - N/A Fog Fog
2:27 AM 35.6 °F - 35.6 °F 100% 30.19 in 0.2 mi Calm Calm - N/A Fog Fog
2:42 AM 35.6 °F - 33.8 °F 93% 30.18 in 0.2 mi Calm Calm - N/A Fog Fog
2:49 AM 35.6 °F - 33.8 °F 93% 30.18 in 1.0 mi Calm Calm - N/A   Mist
2:50 AM 35.1 °F - 33.1 °F 92% 30.19 in 1.0 mi Calm Calm - N/A   Mist
3:00 AM 35.6 °F - 33.8 °F 93% 30.18 in 0.8 mi Calm Calm - N/A   Mist
3:08 AM 35.6 °F - 33.8 °F 93% 30.18 in 0.2 mi Calm Calm - N/A Fog Fog
3:17 AM 33.8 °F - 32.0 °F 93% 30.18 in 0.2 mi Calm Calm - N/A Fog Fog
3:27 AM 33.8 °F - 32.0 °F 93% 30.18 in 0.2 mi Calm Calm - N/A Fog Fog
3:41 AM 35.6 °F - 33.8 °F 93% 30.17 in 0.5 mi Calm Calm - N/A Fog Fog
3:53 AM 36.0 °F - 33.1 °F 89% 30.18 in 0.5 mi Calm Calm - N/A Fog Fog
4:04 AM 37.4 °F 33.8 °F 33.8 °F 87% 30.17 in 2.5 mi North 4.6 mph - N/A   Scattered Clouds
4:09 AM 37.4 °F - 33.8 °F 87% 30.17 in 4.0 mi Calm Calm - N/A   Mostly Cloudy
4:36 AM 37.4 °F - 35.6 °F 93% 30.17 in 1.8 mi Calm Calm - N/A   Overcast
4:46 AM 35.6 °F - 33.8 °F 93% 30.17 in 0.5 mi Calm Calm - N/A Fog Fog
4:53 AM 36.0 °F - 34.0 °F 93% 30.18 in 0.5 mi Calm Calm - N/A Fog Fog
5:18 AM 35.6 °F - 33.8 °F 93% 30.17 in 0.2 mi Calm Calm - N/A Fog Fog
5:53 AM 35.1 °F - 33.1 °F 92% 30.18 in 0.5 mi Calm Calm - N/A Fog Fog
6:02 AM 35.6 °F - 33.8 °F 93% 30.17 in 0.2 mi Calm Calm - N/A Fog Fog
6:10 AM 33.8 °F - 32.0 °F 93% 30.18 in 0.5 mi Calm Calm - N/A Fog Fog
6:25 AM 35.6 °F - 33.8 °F 93% 30.18 in 0.2 mi Calm Calm - N/A Fog Fog
6:37 AM 35.6 °F - 33.8 °F 93% 30.18 in 0.5 mi Calm Calm - N/A Fog Fog
6:53 AM 35.1 °F - 33.1 °F 92% 30.19 in 0.2 mi Calm Calm - N/A Fog Fog
7:26 AM 37.4 °F 34.9 °F 35.6 °F 93% 30.18 in 1.0 mi NNE 3.5 mph - N/A   Overcast
7:29 AM 37.4 °F 34.9 °F 35.6 °F 93% 30.18 in 3.0 mi NE 3.5 mph - N/A   Overcast
7:43 AM 37.4 °F - 35.6 °F 93% 30.18 in 2.0 mi Calm Calm - N/A   Overcast
7:51 AM 37.4 °F - 35.6 °F 93% 30.19 in 1.0 mi Calm Calm - N/A   Overcast
7:53 AM 37.0 °F - 35.1 °F 93% 30.20 in 0.8 mi Calm Calm - N/A   Overcast
8:53 AM 37.9 °F - 36.0 °F 93% 30.22 in 0.8 mi Calm Calm - N/A   Overcast
9:53 AM 39.9 °F - 37.9 °F 93% 30.22 in 1.0 mi Calm Calm - N/A   Mostly Cloudy
10:53 AM 41.0 °F - 37.9 °F 89% 30.23 in 1.0 mi Calm Calm - N/A   Overcast
10:54 AM 41.0 °F 39.0 °F 37.4 °F 87% 30.21 in 6.0 mi NW 3.5 mph - N/A   Overcast
10:56 AM 41.0 °F 39.0 °F 37.4 °F 87% 30.22 in 3.0 mi NW 3.5 mph - N/A   Overcast
11:53 AM 43.0 °F - 37.9 °F 82% 30.22 in 4.0 mi Calm Calm - N/A   Haze
12:53 PM 43.0 °F - 37.9 °F 82% 30.21 in 10.0 mi Calm Calm - N/A   Scattered Clouds
1:53 PM 45.0 °F - 39.0 °F 80% 30.20 in 10.0 mi Calm Calm - N/A   Partly Cloudy
2:53 PM 44.1 °F 42.5 °F 39.0 °F 82% 30.20 in 10.0 mi South 3.5 mph - N/A   Clear
3:53 PM 43.0 °F - 37.9 °F 82% 30.21 in 10.0 mi Calm Calm - N/A   Clear
4:53 PM 42.1 °F - 36.0 °F 79% 30.22 in 10.0 mi Calm Calm - N/A   Clear
5:53 PM 39.9 °F - 36.0 °F 86% 30.23 in 10.0 mi Calm Calm - N/A   Clear
6:53 PM 39.9 °F - 36.0 °F 86% 30.25 in 8.0 mi Calm Calm - N/A   Clear
7:53 PM 39.9 °F - 36.0 °F 86% 30.25 in 8.0 mi Calm Calm - N/A   Clear
8:34 PM 39.2 °F - 37.4 °F 93% 30.25 in 1.5 mi Calm Calm - N/A   Clear
8:45 PM 39.2 °F - 35.6 °F 87% 30.25 in 3.0 mi Calm Calm - N/A   Clear
8:53 PM 39.0 °F - 37.0 °F 93% 30.26 in 5.0 mi Calm Calm - N/A   Clear
9:25 PM 37.4 °F - 35.6 °F 93% 30.25 in 1.5 mi Calm Calm - N/A   Clear
9:38 PM 39.2 °F - 37.4 °F 93% 30.25 in 2.5 mi Calm Calm - N/A   Partly Cloudy
9:53 PM 39.9 °F - 37.9 °F 93% 30.26 in 0.5 mi Calm Calm - N/A Fog Fog
10:12 PM 39.2 °F - 37.4 °F 93% 30.25 in 1.8 mi Calm Calm - N/A   Overcast
10:37 PM 39.2 °F - 39.2 °F 100% 30.25 in 0.8 mi Calm Calm - N/A   Overcast
10:47 PM 39.2 °F - 37.4 °F 93% 30.25 in 0.2 mi Calm Calm - N/A Fog Fog
10:53 PM 41.0 °F - 37.9 °F 89% 30.26 in 0.2 mi Calm Calm - N/A Fog Fog
11:53 PM 39.9 °F - 39.0 °F 97% 30.26 in 0.2 mi Calm Calm - N/A Fog Fog